Visibility
8.7 15.0 15.0 15.0 14.8 7.1 7.3 15.0 12.6 15.0 15.0 15.0 15.0 15.0 15.0 15.0 15.0 15.0 15.0 15.0 15.0 15.0 15.0 15.0 15.0 15.0 15.0 15.0 15.0 15.0 15.0 15.0 15.0 15.0 15.0 15.0 15.0 15.0 15.0 15.0 15.0 15.0 15.0
14.9 3.1 15.0 15.0 14.1 5.1 4.6 8.3 9.4 14.9 15.0 15.0 15.0 15.0 15.0 15.0 15.0 15.0 15.0 15.0 15.0 15.0 15.0 15.0 15.0 15.0 15.0 15.0 15.0 15.0 15.0 15.0 15.0 15.0 15.0 15.0 15.0 15.0 15.0 15.0 15.0 15.0 15.0
13.8 15.0 4.6 8.9 7.1 14.9 14.8 15.0 10.7 12.6 15.0 15.0 14.0 15.0 15.0 15.0 15.0 15.0 15.0 15.0 15.0 15.0 15.0 15.0 15.0 15.0 15.0 15.0 15.0 15.0 15.0 15.0 15.0 15.0 15.0 15.0 15.0 15.0 15.0 15.0 15.0 15.0 15.0
2.6 6.0 0.7 4.3 14.5 15.0 8.0 8.6 7.1 9.6 11.6 15.0 15.0 15.0 15.0 15.0 15.0 15.0 15.0 15.0 15.0 15.0 15.0 15.0 15.0 15.0 15.0 15.0 15.0 15.0 15.0 15.0 15.0 15.0 15.0 15.0 15.0 15.0 15.0 15.0 15.0 15.0 15.0
0.3 0.7 5.1 12.9 13.9 13.9 15.0 12.8 13.2 10.6 10.6 15.0 15.0 15.0 15.0 15.0 15.0 15.0 15.0 15.0 15.0 15.0 15.0 15.0 15.0 15.0 15.0 15.0 15.0 15.0 15.0 15.0 15.0 15.0 15.0 15.0 15.0 15.0 15.0 15.0 15.0 15.0 15.0
0.2 0.3 6.9 7.2 15.0 15.0 6.8 15.0 9.9 15.0 7.6 6.2 5.8 5.3 7.8 9.3 10.9 14.8 15.0 15.0 15.0 15.0 15.0 15.0 15.0 15.0 15.0 15.0 15.0 15.0 15.0 15.0 15.0 15.0 15.0 15.0 15.0 15.0 15.0 15.0 15.0 15.0 15.0
0.5 0.2 0.9 15.0 15.0 10.6 6.7 7.5 0.8 0.8 13.6 9.4 5.2 8.4 13.3 7.2 8.0 6.1 15.0 15.0 15.0 15.0 15.0 15.0 15.0 15.0 15.0 15.0 15.0 15.0 15.0 15.0 15.0 15.0 15.0 15.0 15.0 15.0 15.0 15.0 15.0 15.0 15.0
0.1 0.3 0.4 11.4 4.6 14.7 6.9 0.9 0.5 15.0 3.7 9.4 15.0 15.0 13.8 6.3 6.5 8.9 14.8 15.0 15.0 15.0 15.0 15.0 15.0 15.0 15.0 15.0 15.0 15.0 15.0 15.0 15.0 15.0 15.0 15.0 15.0 15.0 15.0 15.0 15.0 15.0 15.0
0.1 0.2 0.5 9.3 4.8 7.7 15.0 10.3 9.4 7.3 15.0 14.2 15.0 15.0 12.9 14.4 5.8 5.0 5.3 5.6 7.5 10.1 15.0 15.0 15.0 15.0 15.0 15.0 15.0 15.0 15.0 15.0 15.0 15.0 15.0 15.0 15.0 15.0 15.0 15.0 15.0 15.0 15.0
0.1 0.1 0.4 1.0 15.0 4.4 7.6 15.0 1.8 15.0 15.0 15.0 15.0 15.0 15.0 14.9 11.6 11.2 8.7 14.2 6.7 13.9 15.0 15.0 15.0 15.0 15.0 15.0 15.0 15.0 15.0 15.0 15.0 15.0 15.0 15.0 15.0 15.0 15.0 15.0 15.0 15.0 15.0
0.1 0.1 0.1 0.2 1.4 6.7 1.1 5.7 4.3 0.3 0.4 0.6 15.0 13.9 15.0 15.0 15.0 15.0 15.0 15.0 15.0 15.0 15.0 15.0 15.0 15.0 15.0 15.0 15.0 15.0 15.0 15.0 15.0 15.0 15.0 15.0 15.0 15.0 15.0 15.0 15.0 15.0 15.0
0.2 0.2 0.1 0.1 0.2 1.1 4.9 9.0 4.0 0.5 0.1 0.1 1.9 2.4 10.1 15.0 15.0 11.1 15.0 15.0 15.0 15.0 15.0 15.0 15.0 15.0 15.0 15.0 15.0 15.0 15.0 15.0 15.0 15.0 15.0 15.0 15.0 15.0 15.0 15.0 15.0 15.0 15.0
0.4 0.4 0.1 0.1 0.1 0.1 0.5 2.5 14.6 0.3 0.1 0.1 0.2 0.3 9.7 7.7 15.0 15.0 15.0 15.0 15.0 15.0 15.0 15.0 15.0 15.0 15.0 15.0 15.0 15.0 15.0 15.0 15.0 15.0 15.0 15.0 15.0 15.0 15.0 15.0 15.0 15.0 15.0
0.2 0.2 0.1 0.1 0.1 0.1 0.1 0.3 6.9 0.7 0.2 0.2 0.5 2.9 15.0 9.3 14.6 15.0 15.0 15.0 15.0 15.0 15.0 15.0 15.0 15.0 15.0 15.0 15.0 15.0 15.0 15.0 15.0 15.0 15.0 15.0 15.0 15.0 15.0 15.0 15.0 15.0 15.0
0.3 0.2 0.1 0.1 0.1 0.1 0.1 0.1 0.1 9.1 2.6 0.1 4.9 14.7 15.0 5.0 13.8 12.1 12.5 15.0 15.0 15.0 15.0 15.0 15.0 15.0 15.0 15.0 15.0 15.0 15.0 15.0 15.0 15.0 15.0 15.0 15.0 15.0 15.0 15.0 15.0 15.0 15.0
0.2 0.5 0.3 0.1 0.1 0.1 0.1 0.1 0.0 3.5 15.0 15.0 13.6 11.7 4.0 14.8 8.8 12.8 11.6 12.3 14.9 13.2 15.0 15.0 15.0 15.0 15.0 15.0 15.0 15.0 15.0 15.0 15.0 15.0 15.0 15.0 15.0 15.0 15.0 15.0 15.0 15.0 15.0
0.2 0.3 0.3 0.3 0.2 0.2 0.1 0.1 0.1 0.1 15.0 15.0 15.0 13.6 10.2 14.6 15.0 12.4 13.6 15.0 15.0 15.0 15.0 15.0 15.0 15.0 15.0 15.0 15.0 15.0 15.0 15.0 15.0 15.0 15.0 15.0 15.0 15.0 15.0 15.0 15.0 15.0 15.0
0.3 0.4 0.1 0.1 0.1 0.2 1.3 0.3 0.1 0.1 0.5 0.0 3.7 15.0 13.8 14.7 15.0 15.0 15.0 12.0 0.4 13.9 15.0 15.0 15.0 15.0 15.0 14.9 2.7 3.0 5.9 15.0 15.0 15.0 15.0 15.0 15.0 15.0 15.0 15.0 15.0 15.0 15.0
2.1 0.4 0.2 0.1 0.1 0.1 0.3 9.7 10.3 1.5 0.9 0.1 0.0 4.0 15.0 15.0 15.0 15.0 15.0 2.8 0.1 0.2 8.1 15.0 15.0 15.0 3.4 5.0 10.0 15.0 15.0 15.0 15.0 15.0 15.0 15.0 15.0 15.0 15.0 15.0 15.0 15.0 15.0
15.0 9.7 2.9 0.3 0.2 0.1 0.1 0.2 8.3 14.7 10.5 2.4 0.3 0.0 0.0 3.6 0.1 0.1 0.1 0.1 0.1 0.1 0.2 14.9 2.6 1.2 0.4 1.1 12.8 14.9 6.2 5.4 11.2 15.0 15.0 15.0 15.0 15.0 15.0 15.0 15.0 15.0 15.0
0.6 13.4 8.1 3.1 4.2 4.8 0.7 1.8 3.0 9.5 15.0 14.9 11.9 0.1 0.0 0.0 0.0 0.0 0.0 0.0 8.4 14.9 7.2 8.7 2.9 6.0 3.9 0.8 0.5 0.5 0.8 6.2 15.0 15.0 15.0 15.0 15.0 8.2 15.0 15.0 15.0 15.0 15.0
12.7 2.7 2.7 0.7 2.6 2.3 2.0 2.9 6.8 6.5 12.9 15.0 10.0 15.0 0.1 0.6 0.1 0.0 0.1 0.5 5.2 7.4 3.3 3.2 1.4 3.1 5.9 10.3 2.6 5.9 15.0 15.0 15.0 15.0 15.0 15.0 15.0 15.0 15.0 15.0 15.0 15.0 15.0
10.1 2.5 2.1 1.4 0.9 3.9 1.1 1.4 0.7 2.4 3.9 4.4 1.4 0.3 1.4 2.7 0.8 0.1 0.1 0.1 0.1 0.1 0.2 0.3 0.7 0.4 0.8 1.0 10.5 15.0 15.0 15.0 15.0 15.0 15.0 15.0 15.0 15.0 15.0 15.0 15.0 15.0 15.0
4.3 1.9 0.7 0.8 2.3 1.1 1.0 0.3 0.7 1.1 1.9 0.9 0.9 0.2 0.5 3.0 1.0 0.1 0.1 0.1 0.1 0.1 0.1 0.1 0.1 0.2 0.4 0.9 7.5 14.5 15.0 15.0 15.0 15.0 15.0 15.0 15.0 15.0 11.4 15.0 15.0 15.0 11.3
3.1 2.3 1.7 0.7 0.6 0.9 0.9 0.5 0.4 0.3 0.8 2.0 1.1 0.6 0.4 0.4 0.6 0.6 0.2 0.1 0.1 0.1 0.2 0.3 0.4 0.5 1.6 8.0 15.0 15.0 15.0 15.0 15.0 15.0 15.0 14.7 15.0 14.9 15.0 15.0 15.0 14.5 4.6
2.7 2.5 1.4 1.3 0.8 0.7 0.4 0.5 0.4 0.4 0.4 0.5 0.4 0.5 0.4 0.3 0.3 0.3 0.2 0.1 0.1 0.1 0.2 0.3 0.8 7.6 15.0 15.0 15.0 15.0 15.0 15.0 15.0 15.0 15.0 15.0 6.1 7.8 15.0 15.0 15.0 4.1 12.1